| time (UTC) | temp F | wind direction | speed MPH | gust MPH | rain 1hr in | rain 24hr in | rain mn in | humidity % | barometer mb |
| 20260505181004 | 55 | 311 | 3.0 | 5.0 | 0.00 | 0.52 | 0.10 | 77 | 1013.6 |
| 20260505180504 | 54 | 256 | 2.0 | 5.0 | 0.00 | 0.52 | 0.10 | 78 | 1013.6 |
| 20260505180004 | 54 | 264 | 2.0 | 5.0 | 0.00 | 0.52 | 0.10 | 79 | 1013.6 |
| 20260505175505 | 54 | 283 | 2.0 | 5.0 | 0.00 | 0.52 | 0.10 | 78 | 1013.6 |
| 20260505175005 | 53 | 277 | 2.0 | 5.0 | 0.00 | 0.52 | 0.10 | 81 | 1013.5 |
| 20260505174504 | 53 | 339 | 2.0 | 3.0 | 0.00 | 0.52 | 0.10 | 84 | 1013.4 |
| 20260505173004 | 51 | 311 | 1.0 | 3.0 | 0.00 | 0.52 | 0.10 | 85 | 1013.3 |
| 20260505172504 | 50 | 157 | 0.0 | 0.0 | 0.00 | 0.52 | 0.10 | 85 | 1013.2 |
| 20260505172005 | 49 | 237 | 0.0 | 1.0 | 0.00 | 0.52 | 0.10 | 84 | 1013.2 |
| 20260505171504 | 49 | 193 | 0.0 | 0.0 | 0.00 | 0.52 | 0.10 | 85 | 1013.2 |
| 20260505170504 | 48 | 311 | 1.0 | 2.0 | 0.00 | 0.52 | 0.10 | 87 | 1013.2 |
| 20260505170004 | 48 | 156 | 0.0 | 3.0 | 0.00 | 0.52 | 0.10 | 86 | 1013.2 |
| 20260505165504 | 48 | 196 | 2.0 | 2.0 | 0.00 | 0.52 | 0.10 | 88 | 1013.2 |
| 20260505165005 | 48 | 239 | 1.0 | 2.0 | 0.00 | 0.52 | 0.10 | 89 | 1013.1 |
| 20260505164504 | 47 | 148 | 0.0 | 0.0 | 0.00 | 0.52 | 0.10 | 90 | 1013.1 |
| 20260505164004 | 47 | 148 | 0.0 | 1.0 | 0.00 | 0.52 | 0.10 | 90 | 1013.2 |
| 20260505163504 | 47 | 251 | 2.0 | 5.0 | 0.00 | 0.52 | 0.10 | 91 | 1013.1 |
| 20260505162505 | 47 | 185 | 1.0 | 6.0 | 0.00 | 0.52 | 0.10 | 92 | 1013.0 |
| 20260505162004 | 47 | 217 | 0.0 | 3.0 | 0.00 | 0.52 | 0.10 | 93 | 1012.9 |
| 20260505161504 | 46 | 169 | 0.0 | 2.0 | 0.00 | 0.52 | 0.10 | 93 | 1012.9 |
| 20260505161005 | 46 | 193 | 0.0 | 2.0 | 0.00 | 0.52 | 0.10 | 93 | 1013.0 |
| 20260505160505 | 46 | 263 | 2.0 | 5.0 | 0.00 | 0.52 | 0.10 | 94 | 1012.9 |
| 20260505153004 | 46 | 223 | 1.0 | 2.0 | 0.00 | 0.52 | 0.10 | 95 | 1012.6 |
| 20260505152504 | 46 | 193 | 0.0 | 3.0 | 0.00 | 0.52 | 0.10 | 95 | 1012.6 |
| 20260505152004 | 46 | 220 | 1.0 | 6.0 | 0.00 | 0.52 | 0.10 | 95 | 1012.7 |
| 20260505151504 | 46 | 206 | 2.0 | 6.0 | 0.00 | 0.52 | 0.10 | 96 | 1012.6 |
| 20260505151004 | 47 | 237 | 2.0 | 6.0 | 0.00 | 0.52 | 0.10 | 96 | 1012.5 |
| 20260505150504 | 47 | 228 | 3.0 | 6.0 | 0.00 | 0.52 | 0.10 | 96 | 1012.5 |
| 20260505140504 | 46 | 246 | 0.0 | 0.0 | 0.00 | 0.52 | 0.10 | 96 | 1012.3 |
| 20260505124504 | 45 | 246 | 0.0 | 0.0 | 0.00 | 0.52 | 0.10 | 96 | 1011.4 |
| 20260505122504 | 45 | 246 | 0.0 | 0.0 | 0.00 | 0.52 | 0.10 | 96 | 1011.3 |
| 20260505122005 | 45 | 246 | 0.0 | 0.0 | 0.00 | 0.52 | 0.10 | 96 | 1011.4 |
| 20260505121504 | 45 | 246 | 0.0 | 0.0 | 0.00 | 0.52 | 0.10 | 96 | 1011.4 |
| 20260505121004 | 45 | 246 | 0.0 | 0.0 | 0.00 | 0.52 | 0.10 | 96 | 1011.4 |
| 20260505120504 | 45 | 246 | 0.0 | 0.0 | 0.00 | 0.52 | 0.10 | 96 | 1011.4 |
| 20260505120005 | 45 | 246 | 0.0 | 0.0 | 0.00 | 0.52 | 0.10 | 96 | 1011.3 |
| 20260505115504 | 45 | 246 | 0.0 | 0.0 | 0.01 | 0.52 | 0.10 | 96 | 1011.4 |
| 20260505115005 | 45 | 246 | 0.0 | 0.0 | 0.01 | 0.52 | 0.10 | 96 | 1011.4 |
| 20260505114004 | 45 | 246 | 0.0 | 0.0 | 0.01 | 0.52 | 0.10 | 96 | 1011.3 |
| 20260505113504 | 45 | 246 | 0.0 | 0.0 | 0.01 | 0.52 | 0.10 | 96 | 1011.2 |
| 20260505113004 | 45 | 246 | 0.0 | 0.0 | 0.01 | 0.52 | 0.10 | 96 | 1011.3 |
| 20260505111504 | 45 | 246 | 0.0 | 0.0 | 0.01 | 0.52 | 0.10 | 96 | 1011.2 |
| 20260505111005 | 45 | 246 | 0.0 | 0.0 | 0.01 | 0.52 | 0.10 | 96 | 1011.2 |
| 20260505110504 | 45 | 246 | 0.0 | 0.0 | 0.01 | 0.52 | 0.10 | 96 | 1011.3 |
| 20260505102005 | 45 | 246 | 0.0 | 0.0 | 0.00 | 0.51 | 0.09 | 96 | 1011.5 |
| 20260505101504 | 45 | 246 | 0.0 | 0.0 | 0.00 | 0.51 | 0.09 | 96 | 1011.5 |
| 20260505101004 | 45 | 246 | 0.0 | 0.0 | 0.00 | 0.51 | 0.09 | 96 | 1011.7 |
| 20260505100504 | 45 | 246 | 0.0 | 0.0 | 0.00 | 0.51 | 0.09 | 96 | 1011.6 |
| 20260505100004 | 45 | 246 | 0.0 | 0.0 | 0.00 | 0.51 | 0.09 | 96 | 1011.8 |
| 20260505095504 | 45 | 246 | 0.0 | 0.0 | 0.00 | 0.51 | 0.09 | 96 | 1011.8 |
| 20260505095004 | 45 | 246 | 0.0 | 0.0 | 0.00 | 0.51 | 0.09 | 96 | 1011.7 |
| 20260505094505 | 45 | 246 | 0.0 | 0.0 | 0.00 | 0.51 | 0.09 | 96 | 1011.8 |
| 20260505094004 | 45 | 246 | 0.0 | 0.0 | 0.00 | 0.51 | 0.09 | 96 | 1011.8 |
| 20260505093504 | 45 | 246 | 0.0 | 0.0 | 0.00 | 0.51 | 0.09 | 96 | 1011.8 |
| 20260505092005 | 45 | 246 | 0.0 | 0.0 | 0.00 | 0.51 | 0.09 | 96 | 1011.8 |
| 20260505091504 | 45 | 246 | 0.0 | 0.0 | 0.00 | 0.51 | 0.09 | 96 | 1012.0 |
| 20260505090504 | 45 | 315 | 0.0 | 0.0 | 0.00 | 0.51 | 0.09 | 96 | 1012.0 |
| 20260505090005 | 45 | 315 | 0.0 | 0.0 | 0.00 | 0.51 | 0.09 | 96 | 1012.0 |
| 20260505085005 | 45 | 315 | 0.0 | 0.0 | 0.00 | 0.51 | 0.09 | 96 | 1012.0 |
| 20260505084504 | 45 | 322 | 1.0 | 2.0 | 0.00 | 0.51 | 0.09 | 96 | 1012.0 |
| 20260505084004 | 45 | 0 | 1.0 | 3.0 | 0.01 | 0.51 | 0.09 | 96 | 1012.0 |
| 20260505083504 | 45 | 62 | 0.0 | 0.0 | 0.01 | 0.51 | 0.09 | 96 | 1012.0 |
| 20260505083005 | 45 | 62 | 0.0 | 0.0 | 0.02 | 0.51 | 0.09 | 96 | 1012.1 |
| 20260505082505 | 45 | 62 | 0.0 | 2.0 | 0.04 | 0.51 | 0.09 | 96 | 1012.3 |
| 20260505081004 | 45 | 172 | 3.0 | 5.0 | 0.06 | 0.51 | 0.09 | 96 | 1012.1 |
| 20260505080504 | 44 | 151 | 3.0 | 5.0 | 0.07 | 0.51 | 0.09 | 96 | 1012.0 |
| 20260505080004 | 45 | 140 | 3.0 | 5.0 | 0.09 | 0.51 | 0.09 | 96 | 1012.0 |
| 20260505075504 | 45 | 178 | 0.0 | 0.0 | 0.10 | 0.51 | 0.09 | 96 | 1011.8 |
| 20260505075004 | 44 | 178 | 0.0 | 0.0 | 0.11 | 0.51 | 0.09 | 96 | 1012.0 |
| 20260505074504 | 45 | 178 | 0.0 | 0.0 | 0.11 | 0.51 | 0.09 | 96 | 1012.0 |
| 20260505074004 | 44 | 178 | 0.0 | 0.0 | 0.10 | 0.50 | 0.08 | 96 | 1012.1 |
| 20260505073504 | 45 | 178 | 0.0 | 0.0 | 0.10 | 0.50 | 0.08 | 96 | 1012.4 |
| 20260505073004 | 45 | 178 | 0.0 | 0.0 | 0.09 | 0.49 | 0.07 | 96 | 1012.5 |
| 20260505072504 | 45 | 178 | 0.0 | 0.0 | 0.07 | 0.47 | 0.05 | 96 | 1012.6 |
| 20260505072004 | 45 | 178 | 0.0 | 0.0 | 0.07 | 0.47 | 0.05 | 96 | 1012.6 |
| 20260505071504 | 45 | 178 | 0.0 | 1.0 | 0.06 | 0.46 | 0.04 | 96 | 1012.5 |
| 20260505071005 | 45 | 239 | 2.0 | 5.0 | 0.05 | 0.45 | 0.03 | 96 | 1012.3 |
| 20260505070005 | 46 | 224 | 3.0 | 5.0 | 0.02 | 0.42 | 0.00 | 96 | 1012.2 |
| 20260505065504 | 46 | 179 | 0.0 | 2.0 | 0.02 | 0.42 | 0.42 | 96 | 1012.2 |
| 20260505065005 | 46 | 171 | 1.0 | 1.0 | 0.02 | 0.41 | 0.41 | 96 | 1012.0 |
| 20260505064504 | 46 | 6 | 0.0 | 0.0 | 0.01 | 0.40 | 0.40 | 96 | 1011.9 |
| 20260505064004 | 46 | 6 | 0.0 | 0.0 | 0.01 | 0.40 | 0.40 | 96 | 1011.9 |
| 20260505063504 | 46 | 6 | 0.0 | 0.0 | 0.01 | 0.40 | 0.40 | 96 | 1011.8 |
| 20260505063005 | 46 | 6 | 0.0 | 0.0 | 0.01 | 0.40 | 0.40 | 96 | 1011.8 |
| 20260505062505 | 46 | 6 | 0.0 | 0.0 | 0.01 | 0.40 | 0.40 | 96 | 1011.7 |
| 20260505062004 | 46 | 6 | 0.0 | 0.0 | 0.02 | 0.40 | 0.40 | 96 | 1011.5 |
| 20260505061004 | 46 | 6 | 0.0 | 0.0 | 0.02 | 0.40 | 0.40 | 96 | 1011.5 |
| 20260505060504 | 46 | 6 | 0.0 | 0.0 | 0.02 | 0.40 | 0.40 | 96 | 1011.5 |
| 20260505060004 | 46 | 6 | 0.0 | 0.0 | 0.02 | 0.40 | 0.40 | 96 | 1011.6 |
| 20260505055505 | 46 | 6 | 0.0 | 0.0 | 0.02 | 0.40 | 0.40 | 96 | 1011.7 |
| 20260505055005 | 46 | 6 | 0.0 | 0.0 | 0.01 | 0.39 | 0.39 | 96 | 1011.8 |
| 20260505054505 | 46 | 6 | 0.0 | 0.0 | 0.01 | 0.39 | 0.39 | 95 | 1011.7 |
| 20260505054005 | 46 | 6 | 0.0 | 0.0 | 0.01 | 0.39 | 0.39 | 95 | 1011.8 |
| 20260505053504 | 46 | 6 | 0.0 | 0.0 | 0.01 | 0.39 | 0.39 | 95 | 1012.0 |
| 20260505053004 | 46 | 6 | 0.0 | 0.0 | 0.01 | 0.39 | 0.39 | 95 | 1012.0 |
| 20260505052504 | 46 | 6 | 0.0 | 0.0 | 0.01 | 0.39 | 0.39 | 95 | 1012.0 |
| 20260505052004 | 46 | 6 | 0.0 | 0.0 | 0.00 | 0.38 | 0.38 | 95 | 1011.9 |
| 20260505051504 | 46 | 6 | 0.0 | 0.0 | 0.00 | 0.38 | 0.38 | 95 | 1011.9 |
| 20260505051005 | 46 | 6 | 0.0 | 0.0 | 0.00 | 0.38 | 0.38 | 95 | 1011.9 |
| 20260505041504 | 46 | 173 | 2.0 | 5.0 | 0.00 | 0.38 | 0.38 | 95 | 1011.4 |
| 20260505041005 | 46 | 181 | 1.0 | 3.0 | 0.00 | 0.38 | 0.38 | 95 | 1011.4 |
| 20260505040505 | 46 | 167 | 0.0 | 2.0 | 0.00 | 0.38 | 0.38 | 95 | 1011.3 |
| 20260505040005 | 46 | 165 | 0.0 | 0.0 | 0.01 | 0.38 | 0.38 | 95 | 1011.2 |
| 20260505035505 | 46 | 165 | 0.0 | 3.0 | 0.01 | 0.38 | 0.38 | 95 | 1011.1 |
| 20260505035005 | 46 | 172 | 2.0 | 5.0 | 0.01 | 0.38 | 0.38 | 95 | 1011.1 |
| 20260505034505 | 46 | 25 | 0.0 | 0.0 | 0.01 | 0.38 | 0.38 | 94 | 1011.1 |
| 20260505034004 | 46 | 25 | 0.0 | 2.0 | 0.01 | 0.38 | 0.38 | 94 | 1011.1 |
| 20260505033004 | 46 | 30 | 3.0 | 6.0 | 0.01 | 0.38 | 0.38 | 94 | 1011.4 |
| 20260505032005 | 46 | 348 | 0.0 | 3.0 | 0.01 | 0.38 | 0.38 | 94 | 1011.5 |
| 20260505031505 | 46 | 345 | 3.0 | 3.0 | 0.01 | 0.38 | 0.38 | 94 | 1011.7 |
| 20260505031004 | 46 | 19 | 2.0 | 3.0 | 0.01 | 0.38 | 0.38 | 94 | 1011.9 |
| 20260505030504 | 46 | 355 | 1.0 | 3.0 | 0.01 | 0.38 | 0.38 | 94 | 1011.9 |
| 20260505030004 | 46 | 354 | 0.0 | 0.0 | 0.00 | 0.37 | 0.37 | 94 | 1011.8 |
| 20260505025005 | 46 | 355 | 2.0 | 7.0 | 0.02 | 0.37 | 0.37 | 94 | 1011.4 |
| 20260505024504 | 46 | 357 | 1.0 | 6.0 | 0.04 | 0.37 | 0.37 | 94 | 1011.4 |
| 20260505024005 | 46 | 89 | 0.0 | 0.0 | 0.06 | 0.37 | 0.37 | 94 | 1011.2 |
| 20260505023504 | 46 | 89 | 0.0 | 0.0 | 0.08 | 0.37 | 0.37 | 94 | 1010.7 |
| 20260505023004 | 46 | 89 | 0.0 | 3.0 | 0.08 | 0.37 | 0.37 | 94 | 1010.7 |
| 20260505022005 | 46 | 172 | 6.0 | 8.0 | 0.09 | 0.37 | 0.37 | 95 | 1010.7 |
| 20260505021504 | 46 | 149 | 3.0 | 7.0 | 0.11 | 0.37 | 0.37 | 95 | 1010.7 |
| 20260505021004 | 46 | 148 | 6.0 | 10.0 | 0.13 | 0.37 | 0.37 | 95 | 1010.2 |
| 20260505020504 | 46 | 195 | 5.0 | 8.0 | 0.15 | 0.37 | 0.37 | 95 | 1009.6 |
| 20260505014504 | 46 | 110 | 0.0 | 2.0 | 0.15 | 0.33 | 0.33 | 94 | 1011.9 |
| 20260505014005 | 46 | 112 | 2.0 | 3.0 | 0.14 | 0.31 | 0.31 | 93 | 1012.0 |
| 20260505013504 | 46 | 86 | 2.0 | 3.0 | 0.12 | 0.29 | 0.29 | 93 | 1012.0 |
| 20260505013004 | 46 | 223 | 0.0 | 0.0 | 0.12 | 0.29 | 0.29 | 92 | 1012.0 |
| 20260505012504 | 46 | 223 | 0.0 | 0.0 | 0.12 | 0.28 | 0.28 | 92 | 1012.0 |
| 20260505012004 | 47 | 223 | 0.0 | 0.0 | 0.12 | 0.28 | 0.28 | 92 | 1012.0 |
| 20260505011505 | 47 | 223 | 0.0 | 0.0 | 0.11 | 0.26 | 0.26 | 92 | 1011.9 |
| 20260505011005 | 47 | 223 | 0.0 | 0.0 | 0.09 | 0.24 | 0.24 | 92 | 1012.1 |
| 20260505010505 | 48 | 223 | 0.0 | 0.0 | 0.07 | 0.22 | 0.22 | 92 | 1012.3 |
| 20260505010005 | 48 | 223 | 0.0 | 6.0 | 0.06 | 0.21 | 0.21 | 91 | 1012.3 |
| 20260505005505 | 48 | 176 | 4.0 | 7.0 | 0.04 | 0.19 | 0.19 | 91 | 1012.1 |
| 20260505004504 | 48 | 190 | 2.0 | 3.0 | 0.03 | 0.18 | 0.18 | 90 | 1011.8 |
| 20260505004004 | 48 | 172 | 1.0 | 3.0 | 0.02 | 0.17 | 0.17 | 89 | 1011.5 |
| 20260505003005 | 48 | 223 | 3.0 | 7.0 | 0.02 | 0.17 | 0.17 | 86 | 1011.4 |
| 20260505002504 | 48 | 187 | 6.0 | 8.0 | 0.01 | 0.16 | 0.16 | 86 | 1011.3 |
| 20260505002004 | 48 | 179 | 2.0 | 6.0 | 0.01 | 0.16 | 0.16 | 85 | 1011.1 |
| 20260505001004 | 48 | 223 | 5.0 | 13.0 | 0.03 | 0.15 | 0.15 | 86 | 1010.9 |
| 20260505000504 | 48 | 213 | 5.0 | 13.0 | 0.05 | 0.15 | 0.15 | 86 | 1010.8 |
| 20260505000004 | 48 | 187 | 5.0 | 9.0 | 0.07 | 0.15 | 0.15 | 88 | 1010.8 |
| 20260504235004 | 49 | 235 | 4.0 | 7.0 | 0.09 | 0.15 | 0.15 | 90 | 1010.6 |
| 20260504234504 | 49 | 240 | 3.0 | 6.0 | 0.09 | 0.15 | 0.15 | 90 | 1010.6 |
| 20260504234005 | 49 | 227 | 2.0 | 7.0 | 0.09 | 0.15 | 0.15 | 90 | 1010.8 |
| 20260504233505 | 48 | 208 | 5.0 | 9.0 | 0.09 | 0.15 | 0.15 | 90 | 1010.7 |
| 20260504232504 | 49 | 240 | 4.0 | 8.0 | 0.09 | 0.15 | 0.15 | 89 | 1010.8 |
| 20260504231504 | 49 | 232 | 4.0 | 7.0 | 0.07 | 0.13 | 0.13 | 87 | 1010.9 |
| 20260504231005 | 50 | 219 | 4.0 | 9.0 | 0.06 | 0.12 | 0.12 | 87 | 1010.6 |
| 20260504230504 | 51 | 187 | 7.0 | 12.0 | 0.04 | 0.10 | 0.10 | 85 | 1010.5 |
| 20260504230005 | 51 | 188 | 7.0 | 12.0 | 0.02 | 0.08 | 0.08 | 83 | 1010.6 |
| 20260504225504 | 52 | 223 | 6.0 | 13.0 | 0.00 | 0.06 | 0.06 | 82 | 1010.7 |
| 20260504225005 | 52 | 194 | 4.0 | 9.0 | 0.00 | 0.06 | 0.06 | 81 | 1010.7 |
| 20260504224504 | 52 | 187 | 4.0 | 9.0 | 0.00 | 0.06 | 0.06 | 81 | 1010.7 |
| 20260504224005 | 52 | 220 | 5.0 | 9.0 | 0.00 | 0.06 | 0.06 | 80 | 1010.7 |
| 20260504223504 | 52 | 209 | 3.0 | 8.0 | 0.00 | 0.06 | 0.06 | 79 | 1010.9 |
| 20260504223005 | 52 | 214 | 3.0 | 7.0 | 0.00 | 0.06 | 0.06 | 80 | 1010.9 |
| 20260504222504 | 52 | 220 | 3.0 | 7.0 | 0.00 | 0.06 | 0.06 | 79 | 1011.2 |
| 20260504222005 | 52 | 233 | 3.0 | 5.0 | 0.00 | 0.06 | 0.06 | 80 | 1011.2 |
| 20260504221505 | 52 | 199 | 5.0 | 8.0 | 0.00 | 0.06 | 0.06 | 79 | 1011.1 |
| 20260504221004 | 52 | 229 | 3.0 | 8.0 | 0.00 | 0.06 | 0.06 | 79 | 1011.1 |
| 20260504220004 | 52 | 193 | 3.0 | 6.0 | 0.00 | 0.06 | 0.06 | 80 | 1011.1 |
| 20260504215504 | 52 | 186 | 6.0 | 8.0 | 0.00 | 0.06 | 0.06 | 79 | 1011.1 |
| 20260504215004 | 52 | 192 | 4.0 | 8.0 | 0.00 | 0.06 | 0.06 | 78 | 1011.3 |
| 20260504214504 | 52 | 205 | 5.0 | 8.0 | 0.00 | 0.06 | 0.06 | 76 | 1011.3 |
| 20260504214004 | 53 | 228 | 2.0 | 8.0 | 0.00 | 0.06 | 0.06 | 78 | 1011.4 |
| 20260504213505 | 52 | 226 | 2.0 | 7.0 | 0.00 | 0.06 | 0.06 | 78 | 1011.5 |
| 20260504213004 | 52 | 241 | 3.0 | 7.0 | 0.01 | 0.06 | 0.06 | 76 | 1011.6 |
| 20260504212005 | 51 | 197 | 5.0 | 8.0 | 0.01 | 0.06 | 0.06 | 81 | 1011.8 |
| 20260504211504 | 51 | 225 | 5.0 | 9.0 | 0.01 | 0.06 | 0.06 | 83 | 1011.8 |
| 20260504211005 | 50 | 214 | 4.0 | 7.0 | 0.01 | 0.06 | 0.06 | 84 | 1011.9 |
| 20260504210504 | 50 | 238 | 3.0 | 8.0 | 0.01 | 0.06 | 0.06 | 82 | 1012.2 |
| 20260504205504 | 51 | 179 | 5.0 | 9.0 | 0.01 | 0.06 | 0.06 | 83 | 1012.2 |
| 20260504204504 | 51 | 237 | 2.0 | 5.0 | 0.03 | 0.06 | 0.06 | 86 | 1012.0 |
| 20260504204004 | 50 | 243 | 4.0 | 7.0 | 0.04 | 0.06 | 0.06 | 90 | 1012.0 |
| 20260504203004 | 49 | 230 | 2.0 | 5.0 | 0.04 | 0.05 | 0.05 | 89 | 1012.1 |
| 20260504202505 | 49 | 278 | 2.0 | 3.0 | 0.04 | 0.05 | 0.05 | 88 | 1012.2 |
| 20260504201504 | 49 | 204 | 2.0 | 5.0 | 0.05 | 0.05 | 0.05 | 88 | 1012.6 |
| 20260504201004 | 49 | 246 | 2.0 | 6.0 | 0.05 | 0.05 | 0.05 | 88 | 1012.7 |
| 20260504200004 | 50 | 219 | 2.0 | 7.0 | 0.05 | 0.05 | 0.05 | 86 | 1012.6 |
| 20260504195504 | 50 | 232 | 3.0 | 8.0 | 0.05 | 0.05 | 0.05 | 85 | 1012.7 |
| 20260504194504 | 52 | 236 | 1.0 | 5.0 | 0.03 | 0.03 | 0.03 | 85 | 1012.7 |
| 20260504193004 | 53 | 155 | 0.0 | 0.0 | 0.01 | 0.01 | 0.01 | 79 | 1012.5 |
| 20260504192504 | 53 | 155 | 0.0 | 0.0 | 0.01 | 0.01 | 0.01 | 75 | 1012.4 |
| 20260504192004 | 54 | 155 | 0.0 | 0.0 | 0.00 | 0.00 | 0.00 | 72 | 1012.4 |
| 20260504191504 | 54 | 155 | 0.0 | 0.0 | 0.00 | 0.00 | 0.00 | 71 | 1012.3 |
| 20260504191004 | 54 | 155 | 0.0 | 0.0 | 0.00 | 0.00 | 0.00 | 70 | 1012.1 |
| 20260504190504 | 54 | 155 | 1.0 | 5.0 | 0.00 | 0.00 | 0.00 | 70 | 1012.0 |
| 20260504190004 | 54 | 216 | 2.0 | 5.0 | 0.00 | 0.00 | 0.00 | 70 | 1012.1 |
| 20260504185504 | 54 | 182 | 0.0 | 5.0 | 0.00 | 0.00 | 0.00 | 70 | 1012.1 |
| 20260504185005 | 54 | 176 | 3.0 | 5.0 | 0.00 | 0.00 | 0.00 | 69 | 1012.1 |
| 20260504184504 | 54 | 180 | 1.0 | 6.0 | 0.00 | 0.00 | 0.00 | 73 | 1012.1 |
| 20260504184004 | 54 | 169 | 3.0 | 6.0 | 0.00 | 0.00 | 0.00 | 70 | 1012.1 |
| 20260504183504 | 54 | 154 | 2.0 | 5.0 | 0.00 | 0.00 | 0.00 | 70 | 1012.0 |
| 20260504183004 | 54 | 127 | 0.0 | 3.0 | 0.00 | 0.00 | 0.00 | 69 | 1012.0 |
| 20260504182505 | 55 | 42 | 2.0 | 6.0 | 0.00 | 0.00 | 0.00 | 68 | 1012.0 |
| 20260504182004 | 54 | 62 | 1.0 | 7.0 | 0.00 | 0.00 | 0.00 | 68 | 1012.0 |
| 20260504181504 | 54 | 66 | 1.0 | 3.0 | 0.00 | 0.00 | 0.00 | 69 | 1012.0 |